Location: Newark
(43.4306°N, 0.3089°E)
Time: 22:00:17
(UTC+00:00)

Tiros 1 despin weight - Visible Passes

Search period start: 24 August 2019 00:00
Search period end: 03 September 2019 00:00
Orbit: 594 x 642 km, 48.2° (Epoch: 24 August)

Date Brightness Start Highest point End Pass type
(mag) Time Alt. Az. Time Alt. Az. Time Alt. Az.
24 Aug ? 01:00:00 15° ENE 01:00:00 15° ENE 01:00:50 10° ENE visible
24 Aug ? 02:37:05 36° NW 02:38:29 51° N 02:42:57 10° E visible
24 Aug ? 04:15:41 10° WNW 04:20:13 68° SSW 04:24:48 10° SE visible
25 Aug ? 01:16:18 18° ENE 01:16:18 18° ENE 01:17:37 10° ENE visible
25 Aug ? 02:53:24 34° NW 02:55:15 65° NNE 02:59:49 10° E visible
25 Aug ? 04:32:27 10° WNW 04:36:43 40° SW 04:41:01 10° SSE visible
26 Aug ? 01:32:55 20° ENE 01:32:55 20° ENE 01:34:28 10° E visible
26 Aug ? 03:10:02 35° WNW 03:11:56 87° SSW 03:16:32 10° ESE visible
27 Aug ? 01:49:54 20° E 01:49:54 20° E 01:51:21 10° E visible
27 Aug ? 03:27:02 37° W 03:28:30 54° SSW 03:32:58 10° SE visible
28 Aug ? 02:07:19 15° ESE 02:07:19 15° ESE 02:08:10 10° ESE visible
28 Aug ? 03:44:30 30° SW 03:44:56 31° SW 03:48:58 10° SSE visible
28 Aug ? 19:31:32 10° SSE 19:33:49 14° SE 19:34:41 13° ESE visible
28 Aug ? 21:10:21 10° SW 21:11:51 21° SW 21:11:51 21° SW visible
29 Aug ? 04:02:22 16° SSW 04:02:22 16° SSW 04:04:13 10° S visible
29 Aug ? 19:46:25 10° SSW 19:50:06 26° SE 19:51:55 20° ESE visible
29 Aug ? 21:26:54 10° WSW 21:29:04 28° WSW 21:29:04 28° WSW visible
30 Aug ? 20:02:16 10° SW 20:06:30 47° SE 20:08:44 25° E visible
30 Aug ? 21:43:39 10° W 21:45:51 28° W 21:45:51 28° W visible
31 Aug ? 20:18:37 10° WSW 20:23:01 79° SSE 20:25:12 29° ENE visible
31 Aug ? 22:00:31 10° W 22:02:17 22° WNW 22:02:17 22° WNW visible
01 Sep ? 20:35:16 10° WSW 20:39:40 70° NNW 20:41:24 36° NE visible
01 Sep ? 22:17:22 10° WNW 22:18:28 17° WNW 22:18:28 17° WNW visible
02 Sep ? 19:10:26 10° SW 19:14:46 59° SSE 19:19:07 10° ENE visible
02 Sep ? 20:52:05 10° W 20:56:25 52° NNW 20:57:24 43° NNE visible
02 Sep ? 22:34:09 10° WNW 22:34:29 12° WNW 22:34:29 12° WNW visible
